Torna al catalogo

COSMOS 252 DEB

AttivoLEO
NORAD 3559·DEBRIS·🇷🇺 Russia

Lanciato Nov 1, 1968 da Baikonur Cosmodrome

Loading…

Prossimi Passaggi (prossime 24 ore)

TLE

AggiornatoSource: Space-Track

Epoca: Sep 14, 2026, 12:07 UTC

1 03559U 68097M   26257.50505801  .00000946  00000-0  22478-3 0  9993
2 03559  62.2951  88.2020 0438388 283.7351  71.5277 14.14690003856525

Traccia COSMOS 252 DEB in tempo reale con AllMySat

Download on the App Store